Weather in Boac

Philippines     13°26′52″N   121°50′20″E
temp.,
°C
wind,
m/s
gust,
m/s
humid.,
%
clouds,
%
prec.,
mm/h
press.,
hPa
HPBL,
m
14 april, wed
wed1423:00+27ne6879100 0.4 1012639
02:00+27ne5681100 1.0 1010477
05:00+27nne5680100 1.6 1009516
08:00+28nne5677100 2.4 1012678
11:00+29nne6774100 0.0 1011763
14:00+29nne9107536 0.0 1008635
17:00+28nne910791 0.6 1008694
20:00+28ne810795 2.2 1010702
15 april, thu
thu1523:00+27ne79825 0.3 1011681
02:00+27ne688328 1.3 1009537
05:00+27ne578299 2.6 1009460
08:00+27nne677985 4.4 1011596
11:00+28nne8877100 0.7 1011684
14:00+28nne8875100 1.3 1008858
17:00+29ne8974100 0.6 1008776
20:00+28ne7874100 0.7 1011627
16 april, fri
fri1623:00+27ne79805 0.0 1012749
02:00+27ne6878100 0.0 1010742
05:00+27ne6776100 0.0 1010854
08:00+27ne6775100 0.0 1012783
11:00+28nne567295 0.0 1011820
14:00+29n897390 0.0 1008526
17:00+29nne91075100 0.1 1009767
20:00+28ne81078100 0.4 1011791
17 april, sat
sat1723:00+28nne8978100 0.1 1012847
02:00+27nne81079100 0.1 1009923
05:00+27ne7976100 0.1 1010959
08:00+28nne787277 0.1 10121083
11:00+28n7971100 0.0 10111121
14:00+29nne91072100 0.0 1008845
17:00+28nne9117426 0.0 1008893
20:00+28ne91178100 0.0 1011966
18 april, sun
sun1823:00+28nne91177100 0.0 10111015
02:00+27nne91177100 0.3 10091016
05:00+27n91177100 0.1 10091077
08:00+28nne91274100 0.9 10111085
11:00+28nne91173100 0.1 1009944
14:00+28ne81072100 0.2 1007845
17:00+28ne101176100 0.4 1006786
20:00+27nne91077100 2.7 1008684